Home   Weather   Clovis   Past weeks

Flag for USA Past Weather in Clovis, New Mexico, USA — Yesterday and Last 2 Weeks

Now
30 °F

Sunny.


Feels Like: 20 °F
Forecast: 29 / 60 °F
Wind: 12 mph from West

Location: Cannon Air Force Base / Clovis

Current Time: Dec 5, 2016 at 7:50:44 am

Latest Report: Dec 5, 2016 at 6:58 am


Visibility: 10 mi

Pressure: 29.81 "Hg (25.31 "Hg at 1300m altitude)

Humidity: 100%

Dew Point: 30 °F

Location of ClovisLocation

Past Weather in Clovis — Graph

°F

Clovis Temperature Yesterday

Maximum temperature yesterday: 50 °F (at 2:58 pm)
Minimum temperature yesterday: 25 °F (at 11:58 pm)
Average temperature yesterday: 36 °F

High & Low Weather Summary for the Past Weeks

 TemperatureHumidityPressure
High72 °F (Nov 20, 2:58 pm)100% (Nov 21, 10:58 pm)30.52 "Hg (Nov 21, 10:58 pm)
Low18 °F (Nov 30, 5:58 am)15% (Nov 27, 12:58 pm)29.41 "Hg (Nov 28, 12:58 pm)
Average42 °F63%29.99 "Hg
* Reported Nov 20 6:58 am — Dec 5 6:58 am, Clovis, Weather by CustomWeather, © 2016

Note: Actual official high and low records may vary slightly from our data, if they occured in-between our weather recording intervals... More about our weather records

Advertising

Clovis Weather History for the Previous 24 Hours

Scroll right to see more
 ConditionsComfort  
Time TempWeatherWind HumidityBarometerVisibility
6:58 am
Mon, Dec 5
30 °FSunny.12 mph100%29.81 "Hg10 mi
4:58 am28 °FClear.10 mph100%29.85 "Hg10 mi
3:58 am28 °FClear.7 mph100%29.85 "Hg10 mi
2:58 am29 °FClear.8 mph100%29.89 "Hg10 mi
1:58 am24 °FClear.6 mph100%29.95 "Hg10 mi
12:58 am26 °FClear.5 mph100%29.95 "Hg10 mi
11:58 pm
Sun, Dec 4
25 °FClear.3 mph100%29.99 "Hg10 mi
10:58 pm30 °FClear.8 mph100%29.99 "Hg10 mi
9:58 pm28 °FClear.7 mph100%30.04 "Hg10 mi
8:58 pm31 °FClear.7 mph100%30.04 "Hg10 mi
7:58 pm35 °FClear.3 mph87%30.04 "Hg10 mi
6:58 pm36 °FClear.3 mph76%30.06 "Hg10 mi
5:58 pm38 °FClear.5 mph69%30.06 "Hg10 mi
4:58 pm42 °FClear.6 mph56%30.05 "Hg10 mi
3:58 pm49 °FSunny.No wind35%30.03 "Hg10 mi
2:58 pm50 °FSunny.No wind35%30.03 "Hg10 mi
1:58 pm49 °FSunny.No wind39%30.06 "Hg10 mi
12:58 pm47 °FSunny.6 mph43%30.08 "Hg10 mi
11:58 am45 °FSunny.7 mph52%30.10 "Hg10 mi
10:58 am41 °FSunny.6 mph72%30.13 "Hg10 mi
9:58 am35 °FSunny.3 mph100%30.18 "Hg10 mi
8:58 am30 °FLow clouds.3 mph100%30.18 "Hg10 mi
7:58 am28 °FPartly sunny.12 mph100%30.16 "Hg10 mi
Weather by CustomWeather, © 2016

See weather overviewHow to use our weather pages